This is the latest recevied weather packets stored in our database for station/object W3JGB. If no packets are shown the sender has not sent any weather packets the latest 10 day(s).
| Time | Temp. | Humidity | Pressure | Rain* | Wind** | Luminosity | Snow |
|---|---|---|---|---|---|---|---|
| 1777929332 | 25° C | 32% | 1006 hPa | 0 mm | - | 96 W/m² | - |
| 1777929029 | 25° C | 33% | 1006.1 hPa | 0 mm | - | 272 W/m² | - |
| 1777928726 | 25° C | 32% | 1006.3 hPa | 0 mm | - | 64 W/m² | - |
| 1777927516 | 25° C | 32% | 1006.6 hPa | 0 mm | - | 427 W/m² | - |
| 1777925699 | 25° C | 37% | 1006.6 hPa | 0 mm | - | 385 W/m² | - |
| 1777922667 | 24.44° C | 36% | 1007.3 hPa | 0 mm | - | 163 W/m² | - |
| 1777921759 | 23.33° C | 42% | 1007.6 hPa | 0 mm | - | 741 W/m² | - |
| 1777919936 | 23.89° C | 36% | 1007.7 hPa | 0 mm | - | 776 W/m² | - |
| 1777919634 | 23.89° C | 38% | 1007.9 hPa | 0 mm | - | 765 W/m² | - |
| 1777919332 | 23.89° C | 39% | 1007.9 hPa | 0 mm | - | 778 W/m² | - |
| 1777919029 | 23.33° C | 37% | 1008 hPa | 0 mm | - | 747 W/m² | - |
| 1777918725 | 23.89° C | 38% | 1008.1 hPa | 0 mm | - | 642 W/m² | - |
| 1777918423 | 22.78° C | 38% | 1008.2 hPa | 0 mm | - | 726 W/m² | - |
| 1777918122 | 22.78° C | 42% | 1008.2 hPa | 0 mm | - | 750 W/m² | - |
| 1777917820 | 23.33° C | 40% | 1008.2 hPa | 0 mm | - | 267 W/m² | - |
| 1777917518 | 22.78° C | 39% | 1008.5 hPa | 0 mm | - | 835 W/m² | - |
| 1777916913 | 22.78° C | 42% | 1008.7 hPa | 0 mm | - | 678 W/m² | - |
| 1777916610 | 21.11° C | 43% | 1008.8 hPa | 0 mm | - | 729 W/m² | - |
| 1777916306 | 22.22° C | 41% | 1008.9 hPa | 0 mm | - | 424 W/m² | - |
| 1777916003 | 22.78° C | 40% | 1008.8 hPa | 0 mm | - | 671 W/m² | - |
| 1777915700 | 22.78° C | 39% | 1009 hPa | 0 mm | - | 575 W/m² | - |
| 1777915397 | 22.22° C | 39% | 1009 hPa | 0 mm | - | 262 W/m² | - |
| 1777915092 | 21.67° C | 42% | 1009.1 hPa | 0 mm | - | 610 W/m² | - |
| 1777914487 | 21.67° C | 41% | 1009.2 hPa | 0 mm | - | 542 W/m² | - |
| 1777914184 | 21.67° C | 40% | 1009.3 hPa | 0 mm | - | 423 W/m² | - |
* Rain latest hour (hover to see other rain measurements)
** Current wind speed in m/s (hover to see current wind gust speed)